Content
SEND FEEDBACK

Daily
Averages
Monthly
Summary
United States of America

HIGHLAND CITY, FLORIDA


Home > North America > United States > Florida
Elevation: 116 feet     Latitude: 27 54N     Longitude: 081 51W

WEATHER
 
SELECT A DAY
Number of Records: 173,540;   Date Range: 1/3/95 - 9/13/14
 
SHARE

PRINT THIS DATA

[ ← Previous Day ]
WEATHER ALMANAC - JANUARY 31, 2013
[ Next Day → ]
[ °C ]   °F
Weather ElementAverageHighLow
Temperature57.5 °F68 °F (12:35 am)46.4 °F (10:55 pm)
Dewpoint42 °F66.2 °F (12:35 am)26.6 °F (5:55 pm)
Humidity62 %100 % (2:15 am)27 % (4:55 pm)
Barometer30.13 in30.26 in (11:35 pm)29.94 in (12:55 am)
Wind Speed8.4 mph17.3 mph (1:55 am)
Wind Gust31.1 mph (1:55 am)
Weather ElementAverage
Visibility8.6 mi
Wind DirectionWNW (305.7 °)

Weather ElementTotal
Precipitation0.07 in
Heating Degree Days7.8 (Base 65)
Growing Degree Days7.2 (Base 50)
Averaged from 69 records on January 31, 2013
WEATHER CONDITIONS BREAKOUT
WIND DIRECTION BREAKOUT
WEATHER BY HOUR - JANUARY 31, 2013
[ °C ]   °F
Local TimeTemperatureDewpointHumidityBarometerVisibilityWind DirectionWind SpeedGust SpeedPrecipitationEventsConditions
12:35 AM68.0 °F66.2 °F94 %29.95 in9.0 miSouth (190°)11.5 mph17.3 mphClear
12:55 AM68.0 °F66.2 °F94 %29.94 in9.0 miSouth (180°)13.8 mph20.7 mphClear
1:15 AM68.0 °F66.2 °F94 %29.95 in9.0 miSouth (180°)12.7 mph17.3 mphScattered Clouds
1:35 AM68.0 °F66.2 °F94 %29.94 in8.0 miSouth (180°)12.7 mphScattered Clouds
1:55 AM64.4 °F62.6 °F94 %29.98 in8.0 miNW (310°)17.3 mph31.1 mphRainLight Rain
2:15 AM60.8 °F60.8 °F100 %29.99 in7.0 miWNW (300°)12.7 mph24.2 mphRainLight Rain
2:35 AM60.8 °F60.8 °F100 %30.00 in3.0 miWNW (300°)9.2 mph0.01 inLight Drizzle
2:55 AM57.2 °F57.2 °F100 %30.00 in5.0 miNW (320°)13.8 mph0.01 inLight Drizzle
3:15 AM57.2 °F57.2 °F100 %30.01 in2.5 miWNW (300°)12.7 mphRainLight Rain
3:35 AM57.2 °F57.2 °F100 %30.02 in2.5 miWNW (300°)8.1 mph0.01 inRainLight Rain
3:55 AM55.4 °F55.4 °F100 %30.02 in1.2 miNW (320°)8.1 mph17.3 mph0.04 inRainRain
4:15 AM55.4 °F55.4 °F100 %30.02 in2.0 miNW (320°)5.8 mphRainLight Rain
4:35 AM55.4 °F55.4 °F100 %30.02 in7.0 miNW (320°)4.6 mphRainLight Rain
4:55 AM55.4 °F55.4 °F100 %30.02 in5.0 miNNW (340°)4.6 mphMostly Cloudy
5:15 AM55.4 °F55.4 °F100 %30.03 in9.0 miNW (320°)3.5 mphMostly Cloudy
5:35 AM57.2 °F57.2 °F100 %30.04 in9.0 miNNW (330°)4.6 mphMostly Cloudy
5:55 AM57.2 °F57.2 °F100 %30.05 in9.0 miNNW (340°)5.8 mphRainLight Rain
6:15 AM55.4 °F55.4 °F100 %30.05 in9.0 miNNW (340°)3.5 mphMostly Cloudy
6:35 AM55.4 °F55.4 °F100 %30.06 in9.0 miNNW (330°)4.6 mphMostly Cloudy
7:15 AM55.4 °F55.4 °F100 %30.09 in8.0 miNW (320°)5.8 mphMostly Cloudy
7:55 AM55.4 °F53.6 °F94 %30.11 in8.0 miNW (320°)4.6 mphClear
8:15 AM55.4 °F51.8 °F88 %30.11 in7.0 miNNW (330°)9.2 mphClear
8:35 AM55.4 °F50.0 °F82 %30.12 in9.0 miNNW (330°)11.5 mphClear
8:55 AM57.2 °F48.2 °F72 %30.14 in9.0 miNW (320°)10.4 mph16.1 mphClear
9:15 AM57.2 °F48.2 °F72 %30.14 in7.0 miNNW (340°)9.2 mphPartly Cloudy
9:35 AM57.2 °F46.4 °F67 %30.15 in9.0 miNNW (340°)11.5 mphPartly Cloudy
9:55 AM57.2 °F44.6 °F63 %30.16 in9.0 miNorth (350°)10.4 mphPartly Cloudy
10:15 AM57.2 °F44.6 °F63 %30.16 in9.0 miNNW (340°)12.7 mph16.1 mphClear
10:35 AM59.0 °F44.6 °F59 %30.17 in8.0 miNNW (340°)8.1 mphClear
10:55 AM59.0 °F42.8 °F55 %30.17 in9.0 miNNW (330°)10.4 mphClear
11:15 AM59.0 °F39.2 °F48 %30.17 in10.0 miNW (320°)6.9 mphClear
11:35 AM59.0 °F37.4 °F45 %30.17 in10.0 miNorth (350°)8.1 mphClear
11:55 AM59.0 °F33.8 °F39 %30.16 in8.0 miNW (320°)8.1 mphClear
12:15 PM59.0 °F35.6 °F42 %30.16 in9.0 miNW (310°)6.9 mphClear
12:35 PM60.8 °F32.0 °F34 %30.16 in9.0 miWNW (300°)9.2 mphClear
12:55 PM60.8 °F33.8 °F36 %30.15 in9.0 miWest (280°)8.1 mphClear
1:15 PM60.8 °F33.8 °F36 %30.15 in10.0 miWest (270°)10.4 mphClear
1:35 PM62.6 °F32.0 °F32 %30.15 in9.0 miWNW (290°)10.4 mphClear
1:55 PM60.8 °F32.0 °F34 %30.15 in10.0 miWNW (290°)10.4 mph16.1 mphClear
2:15 PM62.6 °F32.0 °F32 %30.14 in10.0 miWest (280°)9.2 mphClear
2:35 PM62.6 °F30.2 °F30 %30.14 in9.0 miWest (270°)12.7 mphClear
2:55 PM62.6 °F32.0 °F32 %30.15 in9.0 miWNW (290°)11.5 mphClear
3:15 PM62.6 °F30.2 °F30 %30.15 in9.0 miWest (280°)12.7 mphClear
3:35 PM62.6 °F32.0 °F32 %30.15 in10.0 miWNW (300°)9.2 mphClear
3:55 PM62.6 °F30.2 °F30 %30.15 in9.0 miWNW (290°)11.5 mphClear
4:15 PM62.6 °F30.2 °F30 %30.15 in8.0 miWest (280°)10.4 mphClear
4:35 PM62.6 °F30.2 °F30 %30.15 in10.0 miWest (280°)9.2 mphClear
4:55 PM62.6 °F28.4 °F27 %30.16 in9.0 miNW (310°)8.1 mphClear
5:15 PM62.6 °F28.4 °F27 %30.16 in10.0 miNW (310°)5.8 mphClear
5:35 PM60.8 °F28.4 °F29 %30.16 in9.0 miNW (310°)8.1 mphClear
5:55 PM60.8 °F26.6 °F27 %30.17 in10.0 miNW (320°)5.8 mphClear
6:15 PM59.0 °F28.4 °F31 %30.17 in10.0 miWest (280°)5.8 mphClear
6:35 PM57.2 °F30.2 °F36 %30.18 in10.0 miNW (310°)8.1 mphClear
6:55 PM55.4 °F30.2 °F38 %30.18 in10.0 miWNW (290°)4.6 mphClear
7:15 PM55.4 °F30.2 °F38 %30.19 in10.0 miWNW (290°)8.1 mphClear
7:35 PM55.4 °F30.2 °F38 %30.20 in10.0 miWNW (300°)10.4 mphClear
7:55 PM53.6 °F32.0 °F44 %30.21 in10.0 miNW (310°)8.1 mphClear
8:15 PM53.6 °F32.0 °F44 %30.22 in10.0 miNW (310°)6.9 mphClear
8:35 PM51.8 °F32.0 °F47 %30.23 in10.0 miNW (310°)8.1 mphClear
8:55 PM51.8 °F32.0 °F47 %30.23 in10.0 miNW (320°)5.8 mphClear
9:15 PM50.0 °F32.0 °F50 %30.24 in10.0 miNW (320°)4.6 mphClear
9:35 PM48.2 °F32.0 °F54 %30.24 in10.0 miNW (320°)5.8 mphClear
9:55 PM48.2 °F33.8 °F58 %30.24 in10.0 miNW (320°)3.5 mphClear
10:15 PM48.2 °F33.8 °F58 %30.25 in10.0 miNW (320°)4.6 mphClear
10:35 PM48.2 °F33.8 °F58 %30.24 in10.0 miNNW (330°)4.6 mphClear
10:55 PM46.4 °F33.8 °F62 %30.25 in10.0 miNNW (330°)4.6 mphClear
11:15 PM46.4 °F33.8 °F62 %30.25 in10.0 miNNW (330°)5.8 mphClear
11:35 PM46.4 °F35.6 °F66 %30.26 in10.0 miNNW (330°)6.9 mphClear
11:55 PM46.4 °F33.8 °F62 %30.26 in10.0 miNNW (340°)4.6 mphClear
Hourly data recorded from KBOW, located miles away from Highland City, Florida







STORIES FROM OUR PARTNERS